Location: Waco, TX
(31.5480°N, 97.1670°W)
Time: 13:49:35

ISS - Pass Details

Date: 16 March 2018
Orbit: 403 x 406 km, 51.6° (Epoch: 21 March)

Event Time Altitude Azimuth Distance (km) Brightness Sun altitude
Rises 08:32:44 0° 303° (WNW) 2,319 -0.6 10.9°
Reaches altitude 10° 08:34:59 10° 291° (WNW) 1,456 -1.6 11.4°
Maximum altitude 08:37:49 27° 231° (SW) 801 -2.6 12.0°
Drops below altitude 10° 08:40:39 10° 170° (S) 1,447 -0.7 12.6°
Sets 08:42:53 0° 158° (SSE) 2,302 0.5 13.0°
